This is the latest recevied weather packets stored in our database for station/object IW7DVM-13. If no packets are shown the sender has not sent any weather packets the latest 10 day(s).
| Time | Temp. | Humidity | Pressure | Rain* | Wind** | Luminosity | Snow |
|---|---|---|---|---|---|---|---|
| 1777964403 | 18.33° C | 71% | 1012.8 hPa | 0 mm | - | - | - |
| 1777964103 | 17.78° C | 71% | 1012.7 hPa | 0 mm | - | - | - |
| 1777963803 | 17.78° C | 71% | 1012.8 hPa | 0 mm | - | - | - |
| 1777963503 | 17.78° C | 71% | 1012.7 hPa | 0 mm | - | - | - |
| 1777963203 | 17.78° C | 71% | 1012.6 hPa | 0 mm | - | - | - |
| 1777962903 | 17.78° C | 71% | 1012.5 hPa | 0 mm | - | - | - |
| 1777962603 | 17.78° C | 71% | 1012.4 hPa | 0 mm | - | - | - |
| 1777962303 | 17.78° C | 71% | 1012.3 hPa | 0 mm | - | - | - |
| 1777962003 | 17.78° C | 71% | 1012.3 hPa | 0 mm | - | - | - |
| 1777961703 | 17.78° C | 71% | 1012.2 hPa | 0 mm | - | - | - |
| 1777961403 | 17.78° C | 71% | 1012 hPa | 0 mm | - | - | - |
| 1777961103 | 17.78° C | 71% | 1012.1 hPa | 0 mm | - | - | - |
| 1777960803 | 17.78° C | 71% | 1012.2 hPa | 0 mm | - | - | - |
| 1777960503 | 17.78° C | 71% | 1012.2 hPa | 0 mm | - | - | - |
| 1777960203 | 17.78° C | 71% | 1012.2 hPa | 0 mm | - | - | - |
| 1777959603 | 16.67° C | 71% | 1012.1 hPa | 0 mm | - | - | - |
| 1777959303 | 16.11° C | 71% | 1012.1 hPa | 0 mm | - | - | - |
| 1777959003 | 16.11° C | 72% | 1012.1 hPa | 0 mm | - | - | - |
| 1777958703 | 15.56° C | 72% | 1012.2 hPa | 0 mm | - | - | - |
| 1777958403 | 15.56° C | 72% | 1012.2 hPa | 0 mm | - | - | - |
| 1777958103 | 15.56° C | 72% | 1012.1 hPa | 0 mm | - | - | - |
| 1777957803 | 15° C | 72% | 1012.1 hPa | 0 mm | - | - | - |
| 1777957503 | 14.44° C | 72% | 1012.1 hPa | 0 mm | - | - | - |
| 1777957203 | 13.89° C | 72% | 1012 hPa | 0 mm | - | - | - |
| 1777956903 | 13.89° C | 72% | 1012 hPa | 0 mm | - | - | - |
* Rain latest hour (hover to see other rain measurements)
** Current wind speed in m/s (hover to see current wind gust speed)